Regional Weather Roundup
Issued by NWS Charleston, WV

Home | Current Version | Previous Version | Text Only | Print | Product List | Glossary Off
Versions: 1 2 3 4 5 6 7 8 9 10 11 12 13 14 15 16 17 18 19 20 21 22 23 24 25 26 27

000
ASUS41 KRLX 232310
RWRRLX
West Virginia Regional Weather Roundup
National Weather Service Charleston WV
700 PM EDT MON MAY 23 2016

Note: "fair" indicates few or no clouds below 12,000 feet with no
significant weather and/or obstructions to visibility.

WVZ003-240000-
Northern Panhandle of West Virginia

CITY           SKY/WX    TMP DP  RH WIND       PRES   REMARKS
WHEELING       CLOUDY    67  50  54 SE9       29.98R
$$

WVZ009-240000-
Northwest West Virginia

CITY           SKY/WX    TMP DP  RH WIND       PRES   REMARKS
PARKERSBURG      N/A     75  49  39 NW7       30.00S
$$

WVZ006-240000-
Western West Virginia

CITY           SKY/WX    TMP DP  RH WIND       PRES   REMARKS
HUNTINGTON       N/A     71  50  47 W3        30.00S
$$

WVZ015-240000-
West Central West Virginia

CITY           SKY/WX    TMP DP  RH WIND       PRES   REMARKS
CHARLESTON       N/A     74  51  44 VRB5      30.00S
$$

WVZ022-031-240000-
North Central West Virginia

CITY           SKY/WX    TMP DP  RH WIND       PRES   REMARKS
CLARKSBURG     PTSUNNY   63  51  65 S3        29.99R
MORGANTOWN     PTSUNNY   67  48  50 W5        30.01R
$$

WVZ025-035-042-045-240000-
Southern West Virginia

CITY           SKY/WX    TMP DP  RH WIND       PRES   REMARKS
BECKLEY        PTSUNNY   66  46  48 NW6       30.04S
LOGAN            N/A     70  48  46 CALM      30.02S
BLUEFIELD      LGT RAIN  55  51  86 W7        30.07S
LEWISBURG        N/A     64  47  52 N5        30.02S
$$

WVZ047-240000-
Northern Mountains of West Virginia

CITY           SKY/WX    TMP DP  RH WIND       PRES   REMARKS
ELKINS           N/A     59  51  75 CALM      30.03S
$$

WVZ052-240000-
Eastern Panhandle of West Virginia

CITY           SKY/WX    TMP DP  RH WIND       PRES   REMARKS
MARTINSBURG    PTSUNNY   62  54  74 NW5       29.93F
PETERSBURG     CLOUDY    67  56  68 SE3       29.99R
$$




USA.gov is the U.S. government's official web portal to all federal, state and local government web resources and services.